DMSP 5D-2 F11 DEB, 28308

Orbit data source: Space-Track

DMSP 5D-2 F11 DEB, 28308 is space debris in SSO originally from a launch on Thu, 28 Nov 1991 UTC launched from the Air Force Western Test Range (AFWTR). Debris objects in space refer to the collection of defunct objects orbiting the Earth. Examples of debris include non-operational satellites, rocket bodies, and fragments generated from explosions, collisions, or faulty payload assembly.

Loading next visibility...
Identifier
28308, 1991-082V
Orbit
SSO
Country
Flag of USUS
Related business
Manufacturer
Unknown
Mission
Spacecraft
Bus & Motor
Unknown
Mass
Unknown
Launch date (UTC)
1991-11-28 (34 years ago)
Launch vehicle
Unknown
Launch site
Air Force Western Test Range (AFWTR)
Object type
Payload
Rocket body
Debris
Shape & HBR
Unknown shape, 0.1 m
Radar Cross Section
Small (<0.1 m²)

Expand to show TLE details & history
Last TLE update: 6 hours ago

TLE from 6 hours ago
0 DMSP 5D-2 F11 DEB
1 28308U 91082V   25349.93148358  .00001226  00000-0  49451-3 0  9992
2 28308  98.5799  17.6928 0014008 200.1777 278.9059 14.29701653122991
Epoch: 2025-12-15T22:21Z
TLE epoch observation values (Epoch: 2025-12-15T22:21:20.181Z)
Latitude
60.03206°
Longitude
152.62214°
Altitude
801.371 km
Speed
7.459 km/s
True Right ascension
14h 11m 07s
True Declination
59° 53' 02"
Sunlit
Object was in daylight at epoch
Visualization orbit readout
Latitude
Unknown
Longitude
Unknown
Altitude
Unknown
Speed
Unknown
Apparent Right ascension
Unknown
Apparent Declination
Unknown
Sunlit
N/A
Visualization observer readout
Local Sidereal Time
03:07:58
Azimuth
Unknown
Elevation
Unknown
Doppler factor
Unknown
Orbital elements
Apogee altitude
799.909 km
Perigee altitude
779.827 km
Semi-major axis
7,168.005 km
Eccentricity
0.0014
Inclination
98.5799°
RAAN
17.6928°
Arg. of periapsis
200.1777°
True anomaly
278.74727°
Mean anomaly
278.9059°
Eccentric anomaly
278.82659°
Mean motion
3.5764 °/min
Orbital period
100.66 mins
BSTAR
0.00049451
Loading maneuver chart data...
Computing Atmospheric mass density...

Documentation

Showing up to 5 results
|